Location: Newark
(53.7833°N, 9.4833°E)
Time: 04:31:52
(UTC+00:00)

Envisat - Pass Details

Date: 10 December 2019
Orbit: 764 x 766 km, 98.1° (Epoch: 28 January)

Event Time Altitude Azimuth Distance (km) Brightness Sun altitude
Rises 06:16:22 0° 16° (NNE) 3,249 6.1 -9.7°
Reaches altitude 10° 06:18:42 10° 18° (NNE) 2,318 5.4 -9.4°
Maximum altitude 06:23:48 73° 103° (ESE) 807 3.3 -8.7°
Drops below altitude 10° 06:28:52 10° 189° (S) 2,300 5.7 -8.1°
Sets 06:31:10 0° 191° (S) 3,221 6.5 -7.8°
